STARLINK-33838 (63500 NORAD) Tracking and Keplerian Element Data

This shows tracking and keplerian element data for the satellite.

Feedback or suggestion? Click here.




ElementValue
Catalog63500
NameSTARLINK-33838
Epoch Orbit4038
Epoch Day354.15065986
Epoch Year2025
RAAN149.2661
Inclination53.1576
Eccentricity0.000116
Argument of Perigee86.4002
Mean Anonmoly273.7131
Mean Motion15.30206664
Decay Rate0.00017767
L11 63500U 25071H 25354.15065986 .00017767 00000+0 61043-3 0 9992
L22 63500 53.1576 149.2661 0001160 86.4002 273.7131 15.30206664 40382



Live tracking and technical data element details for STARLINK-33838 (NORAD 63500). STARLINK-33838 can be tracked NOW for your location showing map with azimuth and elevation plus other details from your city location.







IsCatalogInMostPopularTable: catalog: 63500, numindb: 1
Update: records affected: 1



GetName: 63500 STARLINK-33838

Hit Count: updated at: Tue, 10 Feb 2026 02:55:15 GMT